Torna al catalogo

NUSAT-53

JANE GOODALL

AttivoScienzaSSO
NORAD 68432·PAYLOAD·🇦🇷 Argentina

Lanciato Mar 30, 2026 da Vandenberg Space Force Base

Loading…

Prossimi Passaggi (prossime 24 ore)

TLE

AggiornatoSource: Space-Track

Epoca: Sep 14, 2026, 03:12 UTC

1 68432U 26067S   26257.13393615  .00004692  00000-0  22567-3 0  9993
2 68432  97.4659 214.4990 0004575  77.6904 282.4842 15.19274225 25441

Traccia NUSAT-53 in tempo reale con AllMySat

Download on the App Store